Time,TemperatureF,DewpointF,PressureIn,WindDirection,WindDirectionDegrees,WindSpeedMPH,WindSpeedGustMPH,Humidity,HourlyPrecipIn,Conditions,Clouds,dailyrainin,SolarRadiationWatts/m^2,SoftwareType,DateUTC
2013-12-31 00:02:00,40.0,39.0,-100.00,SSE,159,2.0,8.0,96,0.00,,,0.02,0.000000,,2013-12-31 08:02:00,
2013-12-31 00:11:00,40.0,39.0,-100.00,SSE,159,2.0,8.0,96,0.00,,,0.02,0.000000,,2013-12-31 08:11:00,
2013-12-31 00:22:00,40.0,39.0,-100.00,SSE,159,2.0,8.0,96,0.00,,,0.02,0.000000,,2013-12-31 08:22:00,
2013-12-31 00:52:00,40.0,39.0,-100.00,SE,141,2.0,5.0,96,0.00,,,0.02,0.000000,,2013-12-31 08:52:00,
2013-12-31 01:02:00,40.0,39.0,-100.00,SE,141,2.0,5.0,96,0.00,,,0.02,0.000000,,2013-12-31 09:02:00,
2013-12-31 01:11:00,40.0,39.0,-100.00,SE,141,2.0,5.0,96,0.00,,,0.02,0.000000,,2013-12-31 09:11:00,
2013-12-31 01:21:00,40.0,39.0,-100.00,SE,141,2.0,5.0,96,0.00,,,0.02,0.000000,,2013-12-31 09:21:00,
2013-12-31 01:53:00,39.0,38.0,-100.00,North,-999,0.0,4.0,96,0.01,,,0.03,0.000000,,2013-12-31 09:53:00,
2013-12-31 02:02:00,39.0,38.0,-100.00,North,-999,0.0,4.0,96,0.01,,,0.03,0.000000,,2013-12-31 10:02:00,
2013-12-31 02:12:00,39.0,38.0,-100.00,North,-999,0.0,4.0,96,0.01,,,0.03,0.000000,,2013-12-31 10:12:00,
2013-12-31 02:23:00,39.0,38.0,-100.00,North,-999,0.0,4.0,96,0.01,,,0.03,0.000000,,2013-12-31 10:23:00,
2013-12-31 02:53:00,40.0,39.0,-100.00,ESE,116,2.0,8.0,97,0.00,,,0.03,0.000000,,2013-12-31 10:53:00,
2013-12-31 03:02:00,40.0,39.0,-100.00,ESE,116,2.0,8.0,97,0.00,,,0.03,0.000000,,2013-12-31 11:02:00,
2013-12-31 03:11:00,40.0,39.0,-100.00,ESE,116,2.0,8.0,97,0.00,,,0.03,0.000000,,2013-12-31 11:11:00,
2013-12-31 03:22:00,40.0,39.0,-100.00,ESE,116,2.0,8.0,97,0.00,,,0.03,0.000000,,2013-12-31 11:22:00,
2013-12-31 03:53:00,40.0,38.0,-100.00,SSW,196,2.0,4.0,94,0.00,,,0.03,0.000000,,2013-12-31 11:53:00,
2013-12-31 04:02:00,40.0,38.0,-100.00,SSW,196,2.0,4.0,94,0.00,,,0.03,0.000000,,2013-12-31 12:02:00,
2013-12-31 04:11:00,40.0,38.0,-100.00,SSW,196,2.0,4.0,94,0.00,,,0.03,0.000000,,2013-12-31 12:11:00,
2013-12-31 04:21:00,40.0,38.0,-100.00,SSW,196,2.0,4.0,94,0.00,,,0.03,0.000000,,2013-12-31 12:21:00,
2013-12-31 04:52:00,40.0,38.0,-100.00,East,94,1.0,10.0,93,0.00,,,0.03,0.000000,,2013-12-31 12:52:00,
2013-12-31 05:02:00,40.0,38.0,-100.00,East,94,1.0,10.0,93,0.00,,,0.03,0.000000,,2013-12-31 13:02:00,
2013-12-31 05:12:00,40.0,38.0,-100.00,East,94,1.0,10.0,93,0.00,,,0.03,0.000000,,2013-12-31 13:12:00,
2013-12-31 05:21:00,40.0,38.0,-100.00,East,94,1.0,10.0,93,0.00,,,0.03,0.000000,,2013-12-31 13:21:00,
2013-12-31 05:52:00,39.0,38.0,-100.00,ESE,123,1.0,7.0,95,0.00,,,0.03,0.000000,,2013-12-31 13:52:00,
2013-12-31 06:02:00,39.0,38.0,-100.00,ESE,123,1.0,7.0,95,0.00,,,0.03,0.000000,,2013-12-31 14:02:00,
2013-12-31 06:11:00,39.0,38.0,-100.00,ESE,123,1.0,7.0,95,0.00,,,0.03,0.000000,,2013-12-31 14:11:00,
2013-12-31 06:22:00,39.0,38.0,-100.00,ESE,123,1.0,7.0,95,0.00,,,0.03,0.000000,,2013-12-31 14:22:00,
2013-12-31 06:52:00,39.0,38.0,-100.00,NNE,33,1.0,3.0,95,0.00,,,0.03,0.000000,,2013-12-31 14:52:00,
2013-12-31 07:02:00,39.0,38.0,-100.00,NNE,33,1.0,3.0,95,0.00,,,0.03,0.000000,,2013-12-31 15:02:00,
2013-12-31 07:11:00,39.0,38.0,-100.00,NNE,33,1.0,3.0,95,0.00,,,0.03,0.000000,,2013-12-31 15:11:00,
2013-12-31 07:21:00,39.0,38.0,-100.00,NNE,33,1.0,3.0,95,0.00,,,0.03,0.000000,,2013-12-31 15:21:00,
2013-12-31 07:53:00,39.0,38.0,-100.00,North,-999,0.0,2.0,96,0.00,,,-99.99,0.000000,,2013-12-31 15:53:00,
2013-12-31 08:03:00,39.0,38.0,-100.00,North,-999,0.0,2.0,96,0.00,,,-99.99,0.000000,,2013-12-31 16:03:00,
2013-12-31 08:13:00,39.0,38.0,-100.00,North,-999,0.0,2.0,96,0.00,,,-99.99,0.000000,,2013-12-31 16:13:00,
2013-12-31 08:23:00,39.0,38.0,-100.00,North,-999,0.0,2.0,96,0.00,,,-99.99,0.000000,,2013-12-31 16:23:00,
2013-12-31 08:52:00,38.0,37.0,-100.00,SE,128,1.0,3.0,97,0.00,,,0.03,1.000000,,2013-12-31 16:52:00,
2013-12-31 09:02:00,38.0,37.0,-100.00,SE,128,1.0,3.0,97,0.00,,,0.03,1.000000,,2013-12-31 17:02:00,
2013-12-31 09:12:00,38.0,37.0,-100.00,SE,128,1.0,3.0,97,0.00,,,0.03,1.000000,,2013-12-31 17:12:00,
2013-12-31 09:22:00,38.0,37.0,-100.00,SE,128,1.0,3.0,97,0.00,,,0.03,1.000000,,2013-12-31 17:22:00,
2013-12-31 09:53:00,38.0,37.0,-100.00,North,-999,0.0,2.0,97,0.00,,,0.03,28.000000,,2013-12-31 17:53:00,
2013-12-31 10:02:00,38.0,37.0,-100.00,North,-999,0.0,2.0,97,0.00,,,0.03,28.000000,,2013-12-31 18:02:00,
2013-12-31 10:12:00,38.0,37.0,-100.00,North,-999,0.0,2.0,97,0.00,,,0.03,28.000000,,2013-12-31 18:12:00,
2013-12-31 10:21:00,38.0,37.0,-100.00,North,-999,0.0,2.0,97,0.00,,,0.03,28.000000,,2013-12-31 18:21:00,
2013-12-31 10:53:00,39.0,38.0,-100.00,North,-999,0.0,2.0,97,0.00,,,0.03,85.000000,,2013-12-31 18:53:00,
2013-12-31 11:01:00,39.0,38.0,-100.00,North,-999,0.0,2.0,97,0.00,,,0.03,85.000000,,2013-12-31 19:01:00,
2013-12-31 11:12:00,39.0,38.0,-100.00,North,-999,0.0,2.0,97,0.00,,,0.03,85.000000,,2013-12-31 19:12:00,
2013-12-31 11:21:00,39.0,38.0,-100.00,North,-999,0.0,2.0,97,0.00,,,0.03,85.000000,,2013-12-31 19:21:00,
2013-12-31 11:53:00,40.0,39.0,-100.00,North,-999,0.0,3.0,97,0.00,,,0.03,133.000000,,2013-12-31 19:53:00,
2013-12-31 12:02:00,40.0,39.0,-100.00,North,-999,0.0,3.0,97,0.00,,,0.03,133.000000,,2013-12-31 20:02:00,
2013-12-31 12:11:00,40.0,39.0,-100.00,North,-999,0.0,3.0,97,0.00,,,0.03,133.000000,,2013-12-31 20:11:00,
2013-12-31 12:21:00,40.0,39.0,-100.00,North,-999,0.0,3.0,97,0.00,,,0.03,133.000000,,2013-12-31 20:21:00,
2013-12-31 12:53:00,42.0,41.0,-100.00,North,-999,0.0,3.0,95,0.00,,,0.03,125.000000,,2013-12-31 20:53:00,
2013-12-31 13:02:00,42.0,41.0,-100.00,North,-999,0.0,3.0,95,0.00,,,0.03,125.000000,,2013-12-31 21:02:00,
2013-12-31 13:11:00,42.0,41.0,-100.00,North,-999,0.0,3.0,95,0.00,,,0.03,125.000000,,2013-12-31 21:11:00,
2013-12-31 13:21:00,42.0,41.0,-100.00,North,-999,0.0,3.0,95,0.00,,,0.03,125.000000,,2013-12-31 21:21:00,
2013-12-31 13:25:00,43.0,40.0,-100.00,North,-999,0.0,3.0,90,0.00,,,0.03,195.000000,,2013-12-31 21:25:00,
2013-12-31 13:53:00,43.0,40.0,-100.00,North,-999,0.0,3.0,90,0.00,,,0.03,195.000000,,2013-12-31 21:53:00,
2013-12-31 14:03:00,43.0,40.0,-100.00,North,-999,0.0,3.0,90,0.00,,,0.03,195.000000,,2013-12-31 22:03:00,
2013-12-31 14:13:00,43.0,40.0,-100.00,North,-999,0.0,3.0,90,0.00,,,0.03,195.000000,,2013-12-31 22:13:00,
2013-12-31 14:22:00,43.0,40.0,-100.00,North,-999,0.0,3.0,90,0.00,,,0.03,195.000000,,2013-12-31 22:22:00,
2013-12-31 14:53:00,42.0,38.0,-100.00,NNW,330,2.0,3.0,87,0.00,,,0.03,168.000000,,2013-12-31 22:53:00,
2013-12-31 15:02:00,42.0,38.0,-100.00,NNW,330,2.0,3.0,87,0.00,,,0.03,168.000000,,2013-12-31 23:02:00,
2013-12-31 15:12:00,42.0,38.0,-100.00,NNW,330,2.0,3.0,87,0.00,,,0.03,168.000000,,2013-12-31 23:12:00,
2013-12-31 15:22:00,42.0,38.0,-100.00,NNW,330,2.0,3.0,87,0.00,,,0.03,168.000000,,2013-12-31 23:22:00,
2013-12-31 15:53:00,39.0,38.0,-100.00,WNW,298,2.0,5.0,97,0.00,,,0.03,70.000000,,2013-12-31 23:53:00,
2013-12-31 16:02:00,39.0,38.0,-100.00,WNW,298,2.0,5.0,97,0.00,,,0.03,70.000000,,2014-01-01 00:02:00,
2013-12-31 16:11:00,39.0,38.0,-100.00,WNW,298,2.0,5.0,97,0.00,,,0.03,70.000000,,2014-01-01 00:11:00,
2013-12-31 16:21:00,39.0,38.0,-100.00,WNW,298,2.0,5.0,97,0.00,,,0.03,70.000000,,2014-01-01 00:21:00,
2013-12-31 16:52:00,39.0,38.0,-100.00,West,278,1.0,6.0,98,0.00,,,0.03,10.000000,,2014-01-01 00:52:00,
2013-12-31 17:02:00,39.0,38.0,-100.00,West,278,1.0,6.0,98,0.00,,,0.03,10.000000,,2014-01-01 01:02:00,
2013-12-31 17:11:00,39.0,38.0,-100.00,West,278,1.0,6.0,98,0.00,,,0.03,10.000000,,2014-01-01 01:11:00,
2013-12-31 17:21:00,39.0,38.0,-100.00,West,278,1.0,6.0,98,0.00,,,0.03,10.000000,,2014-01-01 01:21:00,
2013-12-31 17:52:00,39.0,38.0,-100.00,North,-999,0.0,3.0,98,0.00,,,0.02,0.000000,,2014-01-01 01:52:00,
2013-12-31 18:02:00,39.0,38.0,-100.00,North,-999,0.0,3.0,98,0.00,,,0.02,0.000000,,2014-01-01 02:02:00,
2013-12-31 18:11:00,39.0,38.0,-100.00,North,-999,0.0,3.0,98,0.00,,,0.02,0.000000,,2014-01-01 02:11:00,
2013-12-31 18:22:00,39.0,38.0,-100.00,North,-999,0.0,3.0,98,0.00,,,0.02,0.000000,,2014-01-01 02:22:00,
2013-12-31 18:52:00,38.0,37.0,-100.00,North,-999,0.0,3.0,98,0.00,,,0.02,0.000000,,2014-01-01 02:52:00,
2013-12-31 19:02:00,38.0,37.0,-100.00,North,-999,0.0,3.0,98,0.00,,,0.02,0.000000,,2014-01-01 03:02:00,
2013-12-31 19:12:00,38.0,37.0,-100.00,North,-999,0.0,3.0,98,0.00,,,0.02,0.000000,,2014-01-01 03:12:00,
2013-12-31 19:22:00,38.0,37.0,-100.00,North,-999,0.0,3.0,98,0.00,,,0.02,0.000000,,2014-01-01 03:22:00,
2013-12-31 19:53:00,37.0,36.0,-100.00,North,-999,0.0,2.0,98,0.00,,,0.02,0.000000,,2014-01-01 03:53:00,
2013-12-31 20:03:00,37.0,36.0,-100.00,North,-999,0.0,2.0,98,0.00,,,0.02,0.000000,,2014-01-01 04:03:00,
2013-12-31 20:13:00,37.0,36.0,-100.00,North,-999,0.0,2.0,98,0.00,,,0.02,0.000000,,2014-01-01 04:13:00,
2013-12-31 20:23:00,37.0,36.0,-100.00,North,-999,0.0,2.0,98,0.00,,,0.02,0.000000,,2014-01-01 04:23:00,
2013-12-31 20:53:00,36.0,35.0,-100.00,SSW,197,1.0,3.0,98,0.00,,,-99.99,0.000000,,2014-01-01 04:53:00,
2013-12-31 21:02:00,36.0,35.0,-100.00,SSW,197,1.0,3.0,98,0.00,,,-99.99,0.000000,,2014-01-01 05:02:00,
2013-12-31 21:12:00,36.0,35.0,-100.00,SSW,197,1.0,3.0,98,0.00,,,-99.99,0.000000,,2014-01-01 05:12:00,
2013-12-31 21:22:00,36.0,35.0,-100.00,SSW,197,1.0,3.0,98,0.00,,,-99.99,0.000000,,2014-01-01 05:22:00,
2013-12-31 21:53:00,36.0,35.0,-100.00,South,177,2.0,3.0,98,0.00,,,0.02,0.000000,,2014-01-01 05:53:00,
2013-12-31 22:02:00,36.0,35.0,-100.00,South,177,2.0,3.0,98,0.00,,,0.02,0.000000,,2014-01-01 06:02:00,
2013-12-31 22:12:00,36.0,35.0,-100.00,South,177,2.0,3.0,98,0.00,,,0.02,0.000000,,2014-01-01 06:12:00,
2013-12-31 22:22:00,36.0,35.0,-100.00,South,177,2.0,3.0,98,0.00,,,0.02,0.000000,,2014-01-01 06:22:00,
2013-12-31 22:52:00,35.0,34.0,-100.00,SSW,205,2.0,4.0,98,0.00,,,0.01,0.000000,,2014-01-01 06:52:00,
2013-12-31 23:02:00,35.0,34.0,-100.00,SSW,205,2.0,4.0,98,0.00,,,0.01,0.000000,,2014-01-01 07:02:00,
2013-12-31 23:12:00,35.0,34.0,-100.00,SSW,205,2.0,4.0,98,0.00,,,0.01,0.000000,,2014-01-01 07:12:00,
2013-12-31 23:52:00,35.0,34.0,-100.00,West,277,2.0,4.0,98,0.01,,,0.02,0.000000,,2014-01-01 07:52:00,